{"data":{"norad_id":57955,"epoch":"2026-05-25T01:14:56.746752Z","epoch_age_seconds":70234,"freshness":"FRESH","line1":"1 57955U 23148W   26145.05204568  .00000706  00000+0  35978-4 0  9995","line2":"2 57955  53.1620  19.5145 0001322  85.1301 274.9850 15.30194284150256","mean_motion":15.30194284,"eccentricity":0.0001322,"inclination_deg":53.162,"raan_deg":19.5145,"arg_perigee_deg":85.1301,"mean_anomaly_deg":274.985,"bstar":3.5978e-5,"rev_number":15025,"period_min":94.105697234457,"perigee_km":474.3261210183,"apogee_km":476.13815181797,"semimajor_km":6853.3691364181,"source":"CELESTRAK","updated_at":"2026-05-25T13:38:18.464318Z"}}